CAPE
0 0 0 0 0 0 0 0 0 0 0 0 0 0 0 0 0 0 0 0 0 0
0 0 0 0 0 0 0 0 0 0 0 0 0 0 0 0 0 0 0 0 0 0
0 0 0 0 0 0 0 0 0 0 0 0 0 0 0 0 0 0 0 0 0 0
0 0 0 0 0 0 0 0 0 0 0 0 0 0 0 0 0 0 0 0 0 0
0 0 0 0 0 0 0 0 0 0 0 0 0 0 0 0 0 0 0 0 0 0
0 0 0 0 0 0 0 0 0 0 0 0 0 0 0 0 0 0 0 0 0 0
0 0 0 0 0 0 0 0 0 0 0 0 0 0 0 0 0 0 0 0 0 0
0 0 0 0 0 0 0 0 0 0 0 0 0 0 0 0 0 0 0 0 0 0
0 0 0 0 0 0 0 0 0 0 0 0 0 0 0 0 0 0 3 1 0 0
0 0 0 0 0 0 0 0 0 0 0 0 0 0 0 0 1 1 1 3 6 0
0 0 0 0 0 0 0 0 0 0 0 0 0 0 0 3 3 3 3 5 6 6
0 0 0 0 0 0 0 0 0 0 0 0 0 0 1 3 2 1 1 0 2 3
0 0 0 0 0 0 0 0 0 0 0 0 0 0 0 4 0 0 0 0 0 2
0 0 0 0 0 0 0 0 0 0 0 0 0 0 3 7 3 1 2 2 1 5
CIN
-0 -0 -0 -0 -0 -0 -0 -0 -0 -0 -0 -0 -0 -0 -0 -0 -0 -0 -0 -0 -0 -0
-0 -0 -0 -0 -0 -0 -0 -0 -0 -0 -0 -0 -0 -0 -0 -0 -0 -0 -0 -0 -0 -0
-0 -0 -0 -0 -0 -0 -0 -0 -0 -0 -0 -0 -0 -0 -0 -0 -0 -0 -0 -0 -0 -0
-0 -0 -0 -0 -0 -0 -0 -0 -0 -0 -0 -0 -0 -0 -0 -0 -0 -0 -0 -0 -0 -0
-0 -0 -0 -0 -0 -0 -0 -0 -0 -0 -0 -0 -0 -0 -0 -0 -0 -0 -0 -0 -0 -0
-0 -0 -0 -0 -0 -0 -0 -0 -0 -0 -0 -0 -0 -0 -0 -0 -0 -0 -0 -0 -0 -0
-0 -0 -0 -0 -0 -0 -0 -0 -0 -0 -0 -0 -0 -0 -0 -0 -0 -0 -0 -0 -0 -0
-0 -0 -0 -0 -0 -0 -0 -0 -0 -0 -0 -0 -0 -0 -0 -0 -0 -0 -0 -0 -0 -0
-0 -0 -0 -0 -0 -0 -0 -0 -0 -0 -0 -0 -0 -0 -0 -0 -0 -0 -0 -0 -0 -0
-0 -0 -0 -0 -0 -0 -0 -0 -0 -0 -0 -0 -0 -0 -0 -0 -0 -0 -0 -0 -0 -0
-0 -0 -0 -0 -0 -0 -0 -0 -0 -0 -0 -0 -0 -0 -0 -0 -0 -0 -0 -0 -0 -0
-0 -0 -0 -0 -0 -0 -0 -0 -0 -0 -0 -0 -0 -0 -0 -0 -0 -0 -0 -0 -0 -0
-0 -0 -0 -0 -0 -0 -0 -0 -0 -0 -0 -0 -0 -0 -0 -0 -0 -0 -0 -0 -0 -0
-0 -0 -0 -0 -0 -0 -0 -0 -0 -0 -0 -0 -0 -0 -0 -0 -1 -1 -0 -2 -1 -0
Wind_Speed
4 3 4 5 5 5 5 6 7 7 7 8 8 8 8 6 7 8 8 11 9 7
6 5 4 4 4 4 5 5 7 7 7 8 9 9 9 8 10 10 9 10 10 9
6 6 4 4 5 5 6 5 6 7 7 8 9 9 9 9 10 10 9 9 11 11
7 6 6 6 6 6 6 7 7 7 7 8 9 8 8 10 11 12 13 12 12 14
6 6 7 7 8 8 8 8 8 8 8 9 9 9 9 10 11 12 13 14 12 14
6 7 8 7 8 8 9 9 8 8 9 10 10 10 10 10 12 12 14 14 14 15
6 7 7 7 8 8 8 9 9 9 9 10 11 11 11 11 11 12 12 13 13 14
5 5 6 7 8 8 8 8 8 9 10 10 9 8 11 12 13 13 14 13 13 14
5 6 6 7 8 8 8 8 8 10 10 11 8 18 22 19 12 12 13 14 14 14
5 7 7 8 8 9 9 9 10 10 10 12 12 21 22 23 12 12 12 13 13 13
5 7 8 8 9 9 9 10 10 11 12 11 11 22 23 23 14 12 13 13 14 16
6 8 8 9 9 10 9 10 10 10 11 13 13 21 23 21 14 13 15 14 15 16
7 7 8 9 10 8 9 10 9 11 11 15 14 21 22 19 11 13 11 13 15 21
7 8 8 8 8 9 10 10 11 12 12 13 14 14 21 22 12 10 11 10 10 11
Wind_Direction
295 269 272 274 275 277 285 290 293 283 270 265 260 254 246 241 242 239 237 242 235 241
8 360 329 313 306 303 296 291 291 288 287 281 269 259 254 246 244 239 239 241 241 241
25 23 9 6 359 339 320 312 307 304 295 288 281 272 261 258 253 246 245 242 240 242
33 28 30 27 9 357 337 341 334 322 309 300 294 284 267 262 262 250 255 245 238 242
26 19 23 14 359 352 350 342 335 330 322 316 307 299 281 274 269 257 256 254 243 243
19 15 10 360 352 348 343 340 338 333 328 321 314 306 295 274 271 264 258 256 251 248
8 358 349 340 340 337 333 327 330 326 316 311 309 302 294 288 279 273 267 262 257 254
340 336 333 329 324 319 316 315 310 315 316 310 306 299 304 298 291 281 276 267 259 254
329 324 318 313 314 307 305 310 310 305 301 302 299 303 305 304 300 295 287 280 276 266
322 318 314 307 307 310 312 307 303 301 299 297 294 296 301 304 303 299 291 285 280 275
307 302 304 305 308 308 308 305 301 297 292 288 287 296 307 310 306 299 292 289 286 281
290 295 302 305 305 302 301 299 294 290 293 294 296 303 310 313 309 301 299 296 292 291
285 284 287 291 298 297 291 290 295 296 294 294 299 301 302 306 299 295 293 290 289 293
271 276 283 283 287 290 292 294 296 297 295 291 284 290 301 304 298 292 293 289 291 290